Orbital Elements at Epoch 2459000.5 (2020-May-31.0) TDB
Reference: JPL 17 (heliocentric ecliptic J2000)
Element | Value | Uncertainty (1-sigma) | Units |
e | .2900911600613427 | 8.8007e-08 | |
a | 2.574238451702049 | 3.1366e-08 | au |
q | 1.827474632973287 | 2.413e-07 | au |
i | 14.2070635074016 | 6.7831e-06 | deg |
node | 148.5655831512593 | 4.3386e-05 | deg |
peri | 146.1970662011419 | 5.134e-05 | deg |
M | 40.44434171486466 | 3.3429e-05 | deg |
tp | 2458831.016721325907 (2019-Dec-13.51672133) | 0.00013742 | TDB |
period | 1508.591257408176 4.13 | 2.7572e-05 7.549e-08 | d yr |
n | .238633227013721 | 4.3614e-09 | deg/d |
Q | 3.321002270430812 | 4.0465e-08 | au |
|
| | Orbit Determination Parameters
Additional Information
|